<?xml version="1.0" encoding="UTF-8" standalone="no" ?>
<gpx xmlns="http://www.topografix.com/GPX/1/1" xmlns:xsi="http://www.w3.org/2001/XMLSchema-instance" xsi:schemaLocation="http://www.topografix.com/GPX/1/1 http://www.topografix.com/GPX/1/1/gpx.xsd" version="1.1" creator="VisuGPX - https://www.visugpx.com">
  <metadata>
    <name>Baque2</name>
    <desc><![CDATA[sortie du 30janvier2012]]></desc>
  </metadata>
  <trk>
    <name><![CDATA[Trk254]]></name>
    <trkseg>
      <trkpt lat="42.72931" lon="0.96247">
        <ele>1844.1</ele>
        <time>2012-01-27T12:04:24Z</time>
      </trkpt>
      <trkpt lat="42.73147" lon="0.96352">
        <ele>1847.6</ele>
        <time>2012-01-27T12:04:24Z</time>
      </trkpt>
      <trkpt lat="42.73478" lon="0.96539">
        <ele>1846.4</ele>
        <time>2012-01-27T12:04:24Z</time>
      </trkpt>
      <trkpt lat="42.74057" lon="0.97201">
        <ele>1815.9</ele>
        <time>2012-01-27T12:04:24Z</time>
      </trkpt>
      <trkpt lat="42.74487" lon="0.9752">
        <ele>1782.4</ele>
        <time>2012-01-27T12:04:24Z</time>
      </trkpt>
      <trkpt lat="42.74969" lon="0.97594">
        <ele>1774</ele>
        <time>2012-01-27T12:04:24Z</time>
      </trkpt>
      <trkpt lat="42.75045" lon="0.97593">
        <ele>1773.9</ele>
        <time>2012-01-27T12:04:24Z</time>
      </trkpt>
      <trkpt lat="42.75091" lon="0.98055">
        <ele>1735.4</ele>
        <time>2012-01-27T12:04:24Z</time>
      </trkpt>
      <trkpt lat="42.75129" lon="0.98163">
        <ele>1742.4</ele>
        <time>2012-01-27T12:04:24Z</time>
      </trkpt>
      <trkpt lat="42.75301" lon="0.98257">
        <ele>1703.5</ele>
        <time>2012-01-27T12:04:24Z</time>
      </trkpt>
      <trkpt lat="42.75363" lon="0.98201">
        <ele>1713</ele>
        <time>2012-01-27T12:04:24Z</time>
      </trkpt>
      <trkpt lat="42.75425" lon="0.98486">
        <ele>1716.6</ele>
        <time>2012-01-27T12:04:24Z</time>
      </trkpt>
      <trkpt lat="42.7553" lon="0.98623">
        <ele>1724.8</ele>
        <time>2012-01-27T12:04:24Z</time>
      </trkpt>
      <trkpt lat="42.75602" lon="0.98622">
        <ele>1705.9</ele>
        <time>2012-01-27T12:04:24Z</time>
      </trkpt>
      <trkpt lat="42.7571" lon="0.98631">
        <ele>1691.4</ele>
        <time>2012-01-27T12:04:24Z</time>
      </trkpt>
      <trkpt lat="42.75792" lon="0.98763">
        <ele>1670.2</ele>
        <time>2012-01-27T12:04:24Z</time>
      </trkpt>
      <trkpt lat="42.75925" lon="0.99297">
        <ele>1660.2</ele>
        <time>2012-01-27T12:04:24Z</time>
      </trkpt>
      <trkpt lat="42.7593" lon="0.99406">
        <ele>1652.3</ele>
        <time>2012-01-27T12:04:24Z</time>
      </trkpt>
      <trkpt lat="42.75913" lon="0.99462">
        <ele>1646.3</ele>
        <time>2012-01-27T12:04:24Z</time>
      </trkpt>
      <trkpt lat="42.75989" lon="0.99813">
        <ele>1646.6</ele>
        <time>2012-01-27T12:04:24Z</time>
      </trkpt>
      <trkpt lat="42.75894" lon="0.99742">
        <ele>1662.1</ele>
        <time>2012-01-27T12:04:24Z</time>
      </trkpt>
      <trkpt lat="42.75846" lon="0.995">
        <ele>1663.3</ele>
        <time>2012-01-27T12:04:24Z</time>
      </trkpt>
      <trkpt lat="42.75752" lon="0.9952">
        <ele>1702.8</ele>
        <time>2012-01-27T12:04:24Z</time>
      </trkpt>
      <trkpt lat="42.75677" lon="0.99644">
        <ele>1709.1</ele>
        <time>2012-01-27T12:04:24Z</time>
      </trkpt>
      <trkpt lat="42.7565" lon="0.99596">
        <ele>1716.8</ele>
        <time>2012-01-27T12:04:24Z</time>
      </trkpt>
      <trkpt lat="42.75444" lon="0.98936">
        <ele>1744.9</ele>
        <time>2012-01-27T12:04:24Z</time>
      </trkpt>
      <trkpt lat="42.75411" lon="0.98809">
        <ele>1723.2</ele>
        <time>2012-01-27T12:04:24Z</time>
      </trkpt>
      <trkpt lat="42.7504" lon="0.98635">
        <ele>1754.5</ele>
        <time>2012-01-27T12:04:24Z</time>
      </trkpt>
      <trkpt lat="42.7499" lon="0.98563">
        <ele>1763.1</ele>
        <time>2012-01-27T12:04:24Z</time>
      </trkpt>
      <trkpt lat="42.74735" lon="0.97904">
        <ele>1764.1</ele>
        <time>2012-01-27T12:04:24Z</time>
      </trkpt>
      <trkpt lat="42.7458" lon="0.97756">
        <ele>1786.6</ele>
        <time>2012-01-27T12:04:24Z</time>
      </trkpt>
      <trkpt lat="42.74196" lon="0.97564">
        <ele>1771.7</ele>
        <time>2012-01-27T12:04:24Z</time>
      </trkpt>
      <trkpt lat="42.74093" lon="0.97603">
        <ele>1794.5</ele>
        <time>2012-01-27T12:04:24Z</time>
      </trkpt>
      <trkpt lat="42.73608" lon="0.97212">
        <ele>1816.8</ele>
        <time>2012-01-27T12:04:24Z</time>
      </trkpt>
      <trkpt lat="42.73136" lon="0.96851">
        <ele>1840.6</ele>
        <time>2012-01-27T12:04:24Z</time>
      </trkpt>
      <trkpt lat="42.72967" lon="0.96673">
        <ele>1836.3</ele>
        <time>2012-01-27T12:04:24Z</time>
      </trkpt>
      <trkpt lat="42.72948" lon="0.96539">
        <ele>1837.6</ele>
        <time>2012-01-27T12:04:24Z</time>
      </trkpt>
      <trkpt lat="42.72946" lon="0.96399">
        <ele>1840.6</ele>
        <time>2012-01-27T12:04:24Z</time>
      </trkpt>
      <trkpt lat="42.72922" lon="0.96284">
        <ele>1843.6</ele>
        <time>2012-01-27T12:04:24Z</time>
      </trkpt>
    </trkseg>
  </trk>
</gpx>